Location: *
(0.1100°N, 5.5000°E)
Time: 12:52:53
(UTC+00:00)

Cosmos 2237 Rocket - Pass Details

Date: 07 December 2022
Orbit: 833 x 851 km, 71.0° (Epoch: 03 February)

Event Time Altitude Azimuth Distance (km) Brightness Sun altitude
Rises 17:54:36 0° 17° (NNE) 3,400 5.0 -5.8°
Reaches altitude 10° 17:58:06 10° 39° (NE) 2,468 4.1 -6.6°
Maximum altitude 18:01:20 16° 74° (ENE) 2,101 3.6 -7.4°
Drops below altitude 10° 18:04:35 10° 110° (ESE) 2,472 4.2 -8.1°
Sets 18:08:04 0° 131° (SE) 3,408 5.1 -8.9°
